Hourly Data Report for September 04, 2017

All times are specified in Local Standard Time (LST). Add 1 hour to adjust for Daylight Saving Time where and when it is observed.

ARCTIC BAY CS
NUNAVUT

72°59'34.000" N
85°00'44.000" W
10.00 m
2400404
71592
XAT

Download Data

Hourly Data (September 2017)
Hourly Data Report for September 4, 2017
Temp Definition
°C
Dew Point Temp Definition
°C
Rel Hum Definition
%
Wind Dir Definition
10's deg

Wind Spd Definition
km/h
Visibility Definition
km
Stn Press Definition
kPa
Hmdx Definition


Wind Chill Definition


Weather Definition


TIME
00:00 1.1 -2.4 78 30 9   101.14     LegendNANA
01:00 0.5 -2.8 79 3 2   101.15     LegendNANA
02:00 0.7 -2.5 79 0 1   101.16     LegendNANA
03:00 0.8 -2.4 79 0 1   101.18     LegendNANA
04:00 1.4 -1.9 79 29 6   101.23     LegendNANA
05:00 1.2 -2.0 79 35 5   101.24     LegendNANA
06:00 1.3 -2.2 77 36 6   101.27     LegendNANA
07:00 1.2 -2.4 77 35 10   101.27     LegendNANA
08:00 1.5 -2.7 74 35 12   101.27     LegendNANA
09:00 1.5 -2.9 73 34 13   101.28     LegendNANA
10:00 1.8 -2.8 71 29 8   101.29     LegendNANA
11:00 1.9 -3.1 70 29 9   101.27     LegendNANA
12:00 1.7 -3.8 67 31 16   101.28     LegendNANA
13:00 1.8 -3.5 68 32 19   101.30     LegendNANA
14:00 1.7 -3.0 71 31 19   101.33     LegendNANA
15:00 1.6 -4.2 65 31 21   101.33     LegendNANA
16:00 1.6 -4.4 64 31 24   101.37     LegendNANA
17:00 1.4 -3.7 69 32 22   101.37     LegendNANA
18:00 1.0 -4.8 65 32 21   101.37     LegendNANA
19:00 0.5 -5.7 63 33 16   101.34     LegendNANA
20:00 0.0 -5.5 67 33 14   101.37   -4 LegendNANA
21:00 -0.1 -4.5 72 32 14   101.34   -4 LegendNANA
22:00 -0.7 -5.9 68 1 13   101.34   -5 LegendNANA
23:00 -0.4 -6.8 62 33 19   101.31   -6 LegendNANA

Notes on Data Quality.

Legend

  • E = Estimated
  • M = Missing
  • NA = Not Available
  • ‡ = Partner data that is not subject to review by the National Climate Archives
Date modified: